Overview Statistics Trail Chart Weather Telemetry Raw packets
 

This is the latest recevied weather packets stored in our database for station/object PU5FJO-13. If no packets are shown the sender has not sent any weather packets the latest 10 day(s).

<< 16 17 18 19 20 21 22 >>
Time Temp. Humidity Pressure Rain* Wind** Luminosity Snow
1777563368 23.33° C 67% 1018.4 hPa - - - -
1777562768 23.89° C 65% 1018.5 hPa - - - -
1777562168 23.33° C 67% 1018.6 hPa - - - -
1777561568 23.33° C 66% 1018.5 hPa - - - -
1777560968 23.33° C 65% 1018.6 hPa - - - -
1777560368 23.33° C 65% 1018.8 hPa - - - -
1777559768 23.33° C 64% 1018.8 hPa - - - -
1777559168 23.33° C 64% 1018.8 hPa - - - -
1777558568 23.33° C 63% 1018.9 hPa - - - -
1777557968 23.33° C 64% 1019 hPa - - - -
1777557368 23.33° C 64% 1019 hPa - - - -
1777556768 23.33° C 61% 1019.1 hPa - - - -
1777556168 23.33° C 64% 1019.2 hPa - - - -
1777555568 23.33° C 65% 1019.3 hPa - - - -
1777554968 22.78° C 65% 1019.2 hPa - - - -
1777554368 23.33° C 65% 1019.2 hPa - - - -
1777553768 22.78° C 65% 1019.2 hPa - - - -
1777553168 22.78° C 66% 1019.2 hPa - - - -
1777552568 22.78° C 68% 1019.2 hPa - - - -
1777551970 22.22° C 68% 1019 hPa - - - -
1777551368 22.22° C 68% 1019 hPa - - - -
1777550768 22.22° C 69% 1018.8 hPa - - - -
1777550168 21.67° C 71% 1018.7 hPa - - - -
1777549568 21.67° C 73% 1018.4 hPa - - - -
1777548968 21.67° C 73% 1018.4 hPa - - - -

* Rain since midnight (hover to see other rain measurements)
** Current wind speed in m/s (hover to see current wind gust speed)